Miscellaneous Local Product
Issued by NWS North Platte, NE

Home | Current Version | Previous Version | Text Only | Print | Product List | Glossary On
Versions: 1 2 3 4 5 6 7 8 9 10 11 12 13 14 15 16 17 18 19 20 21 22 23 24 25 26 27 28 29 30 31 32 33 34 35 36 37 38 39 40 41 42 43 44 45 46 47 48 49 50
000
AXUS43 KLBF 220310
MISLBF


WESTERN AND NORTH CENTRAL NEBRASKA HOURLY WEATHER ROUNDUP
NATIONAL WEATHER SERVICE NORTH PLATTE NE
900 PM CST SUN JAN 21 2018

NOTE: "FAIR" INDICATES FEW OR NO CLOUDS BELOW 12,000 FEET WITH NO
SIGNIFICANT WEATHER AND/OR OBSTRUCTIONS TO VISIBILITY.

NOTE: STATIONS NOT REPORTING VARIABLES SUCH AS SKY/WEATHER OR
PRESSURE ARE PROVIDED BY RAWS AND APRS NETWORKS AND ARE NOT UNDER
NATIONAL WEATHER SERVICE QUALITY CONTROL.

...OBSERVATIONS IN AND NEAR THE EASTERN PANHANDLE OF NEBRASKA...

CITY           SKY/WX    TMP DP  RH WIND       PRES   REMARKS
PINE RIDGE     CLOUDY    29  25  85 N10       29.97F WCI  20
GORDON         FAIR      28  23  83 N14       29.93S WCI  17
CHADRON        CLOUDY    28  24  85 NW10      29.99F WCI  19
ALLIANCE       CLOUDY    25  24  96 N17       29.92R WCI  12
SIDNEY         LGT SNOW  25  23  92 N29G36    29.88S FOG     WCI   8
CRESCENT LAKE    N/A     25  24  96 N23G33      N/A  WCI  10
$$

...OBSERVATIONS IN NORTHERN NEBRASKA AND FAR SOUTHERN SOUTH DAKOTA...

CITY           SKY/WX    TMP DP  RH WIND       PRES   REMARKS
WINNER         LGT SNOW  32  29  88 N20       29.95S VSB 1   WCI  20
VALENTINE      LGT SNOW  30  27  88 N20G31    29.90S VSB 3/4 WCI  17
AINSWORTH      LGT SNOW  30  30 100 N26G32    29.87F WCI  15
O`NEILL        LGT SNOW  32  32 100 N23G31    29.82S WCI  20
THEDFORD       CLOUDY    30  29  96 N18G26    29.82F WCI  18
BROKEN BOW     LGT SNOW  32  29  88 N29G46    29.68F FOG     WCI  18
ORD            LGT SNOW  33  31  92 N23G37    29.70F FOG     WCI  21
ALBION         CLOUDY    34  32  93 NE21G30   29.71R WCI  22
VALENTINE NWR    N/A     28  27  97 N13G26      N/A  WCI  17
HALSEY           N/A     29  29  99 N12G23      N/A  WCI  19
BUTTE            N/A     30  29  96 NW16        N/A  WCI  19
CHAMBERS         N/A     33  32  98 N8          N/A  WCI  26
EWING            N/A     33  31  93 NE12        N/A  WCI  24
$$

...OBSERVATIONS IN SOUTHWEST NEBRASKA AND FAR NORTHEAST COLORADO...

CITY           SKY/WX    TMP DP  RH WIND       PRES   REMARKS
WRAY           CLOUDY    28  28 100 N28G37    29.81S WCI  13
HOLYOKE        CLOUDY    30  27  86 N28G39    29.82F WCI  16
IMPERIAL       CLOUDY    28  27  96 N31G44    29.76F FOG     WCI  12
OGALLALA         N/A     30  28  93 N26G32    29.81F WCI  15
NORTH PLATTE   FOG       30  27  88 N24G32    29.74F VSB 1/2 WCI  16
MCCOOK         SNOW      31  31 100 N26G36    29.67F VSB 1/2 WCI  17
LEXINGTON      LGT SNOW  33  31  93 N18G24    29.66F WCI  21
STAPLETON        N/A     27  26  96 N7G17       N/A  WCI  20
GOTHENBURG       N/A     32  28  84 N14         N/A  WCI  22
CALLAWAY         N/A     30  29  96 N20         N/A  WCI  17
$$

...OBSERVATIONS IN CENTRAL LINCOLN COUNTY AREA...

CITY           SKY/WX    TMP DP  RH WIND       PRES   REMARKS
N.P. AIRPORT   FOG       30  27  88 N24G32    29.74F VSB 1/2 WCI  16
N.P. DOWNTOWN    N/A     28  27  97 N12G20      N/A  WCI  18
N.P. SOUTHEAST   N/A     28  27  95 N12G24      N/A  WCI  18
N.P. HILLCREST   N/A     29  28  96 N26G38      N/A  WCI  14
$$

...SOME OBSERVATIONS FROM AROUND THE REGION...

CITY           SKY/WX    TMP DP  RH WIND       PRES   REMARKS
DENVER         CLOUDY    23  15  71 N22       29.94S WCI   8
BERTHOUD PASS  HVY SNOW  -4 -15  59 N8        29.74R VSB<1/4 WCI -19
GRAND JUNCTION PTCLDY    18  12  77 CALM      30.15R
LARAMIE        FLURRIES  15  11  83 NW20      29.95R WCI  -2
CHEYENNE       LGT SNOW  20  17  88 NW17G28   29.92S FOG     WCI   5
CASPER         MOCLDY     9   7  92 SW7       30.05S WCI  -2
BISMARCK       MOCLDY    16  13  88 E3        30.06S
RAPID CITY     CLOUDY    31  22  69 N16       30.00F WCI  20
PIERRE         CLOUDY    29  26  89 N13       30.01S WCI  19
SIOUX FALLS    CLOUDY    35  28  75 N17G28    29.87F WCI  25
OMAHA          LGT RAIN  38  36  92 N9        29.68F FOG     WCI  31
GRAND ISLAND   LGT RAIN  33  33 100 NE26      29.66F WCI  20
SCOTTSBLUFF    CLOUDY    28  23  81 NW17      29.96S WCI  16
KANSAS CITY    LGT RAIN  56  51  84 S12       29.57F
HILL CITY      CLOUDY    33  33 100 N17       29.58F WCI  22
WICHITA        CLOUDY    45  37  73 N16       29.59R
DODGE CITY     CLOUDY    35  31  85 W16G25    29.60S WCI  25
OKLAHOMA CITY  CLOUDY    55  12  18 W15G23    29.69S
DALLAS         MOCLDY    68  53  58 W18G26    29.79R
AMARILLO       PTCLDY    34  21  59 NW18G29   29.88R WCI  23
$$




USA.gov is the U.S. government's official web portal to all federal, state and local government web resources and services.